ELY1118 KMIA-LLBG

Flight info

Callsign ELY1118
Flight time N/A
Altitude 31000
Route FOLZZ3 SNAGY/M083F310 DCT ONGOT DCT DRYED/M083F330 M201 CARAC/N0485F330 DCT PORTI/M083F340 DCT 47N050W 49N040W 51N030W 52N020W DCT LIMRI DCT XETBO/N0481F350 DCT UNLID/M083F350 DCT ARKIL/N0482F350 DCT LIZAD DCT JSY DCT TURDU DCT TADUP DCT TEPRI UN491 POGZI DCT GELTA DCT LUVAL/N0470F370 DCT BEGAR DCT TRA DCT GAMSA DCT GEDSO DCT VEKEN DCT NEMEK DCT TUPUS DCT MEDUX UM867 KOGAT DCT ERANA DCT TSL UN130 MES UL609 ALKIS L609 ZUKKO
Aircraft B772/H-SDE2E3FGHIJ4J5LM1OP2RVWXY/LB1D1

Departure

Time 2026-05-03 22:40
Airport Miami International Airport (KMIA)

Arrival

Time N/A
Airport Ben Gurion International Airport (LLBG)
Time Latitude Longitude Altitude Speed Heading
2026-05-03 21:40 25.79241 -80.27422 22 ft 0 kts 83°
2026-05-03 22:22 25.79238 -80.27442 21 ft 4 kts 68°
2026-05-03 22:22 25.79225 -80.27468 22 ft 4 kts 53°
2026-05-03 22:22 25.79212 -80.27486 26 ft 4 kts 54°
2026-05-03 22:23 25.79201 -80.27508 26 ft 4 kts 86°
2026-05-03 22:23 25.79203 -80.27523 27 ft 1 kts 121°
2026-05-03 22:23 25.79191 -80.27514 27 ft 4 kts 152°
2026-05-03 22:23 25.79166 -80.27510 25 ft 4 kts 177°
2026-05-03 22:24 25.79139 -80.27511 23 ft 4 kts 182°
2026-05-03 22:24 25.79112 -80.27512 22 ft 4 kts 181°
2026-05-03 22:24 25.79088 -80.27511 22 ft 1 kts 177°
2026-05-03 22:29 25.79087 -80.27511 22 ft 1 kts 177°
2026-05-03 22:29 25.79039 -80.27509 24 ft 11 kts 178°
2026-05-03 22:29 25.78964 -80.27505 24 ft 11 kts 178°
2026-05-03 22:30 25.78907 -80.27546 28 ft 11 kts 247°
2026-05-03 22:30 25.78888 -80.27625 23 ft 11 kts 258°
2026-05-03 22:30 25.78882 -80.27707 22 ft 11 kts 266°
2026-05-03 22:30 25.78881 -80.27797 24 ft 12 kts 283°
2026-05-03 22:31 25.78877 -80.27871 25 ft 10 kts 260°
2026-05-03 22:31 25.78881 -80.27952 27 ft 11 kts 292°
2026-05-03 22:31 25.78919 -80.28032 26 ft 13 kts 299°
2026-05-03 22:31 25.78963 -80.28119 31 ft 13 kts 300°
2026-05-03 22:32 25.79010 -80.28210 30 ft 14 kts 300°
2026-05-03 22:32 25.79060 -80.28307 31 ft 14 kts 300°
2026-05-03 22:32 25.79111 -80.28402 27 ft 14 kts 307°
2026-05-03 22:32 25.79179 -80.28509 20 ft 19 kts 301°
2026-05-03 22:33 25.79233 -80.28620 20 ft 16 kts 299°
2026-05-03 22:33 25.79289 -80.28728 18 ft 16 kts 298°
2026-05-03 22:33 25.79343 -80.28837 18 ft 16 kts 299°
2026-05-03 22:33 25.79398 -80.28946 22 ft 16 kts 299°
2026-05-03 22:34 25.79454 -80.29054 20 ft 16 kts 300°
2026-05-03 22:34 25.79510 -80.29161 24 ft 16 kts 300°
2026-05-03 22:34 25.79565 -80.29270 26 ft 16 kts 299°
2026-05-03 22:34 25.79621 -80.29378 23 ft 16 kts 300°
2026-05-03 22:35 25.79676 -80.29486 22 ft 16 kts 300°
2026-05-03 22:35 25.79732 -80.29594 19 ft 16 kts 299°
2026-05-03 22:35 25.79787 -80.29703 16 ft 16 kts 299°
2026-05-03 22:35 25.79842 -80.29812 16 ft 16 kts 299°
2026-05-03 22:36 25.79893 -80.29913 17 ft 12 kts 299°
2026-05-03 22:36 25.79914 -80.29954 17 ft 2 kts 299°
2026-05-03 22:36 25.79919 -80.29965 17 ft 2 kts 299°
2026-05-03 22:36 25.79924 -80.29974 17 ft 0 kts 299°
2026-05-03 22:37 25.79935 -80.29997 17 ft 9 kts 298°
2026-05-03 22:38 25.79965 -80.30057 17 ft 9 kts 298°
2026-05-03 22:38 25.80006 -80.30107 19 ft 9 kts 335°
2026-05-03 22:38 25.80064 -80.30095 18 ft 9 kts 41°
2026-05-03 22:38 25.80076 -80.30045 17 ft 4 kts 88°
2026-05-03 22:39 25.80077 -80.30018 17 ft 4 kts 88°
2026-05-03 22:39 25.80082 -80.29890 16 ft 42 kts 87°
2026-05-03 22:39 25.80105 -80.29301 23 ft 109 kts 87°
2026-05-03 22:39 25.80149 -80.28222 23 ft 169 kts 87°
2026-05-03 22:40 25.80218 -80.26807 398 ft 189 kts 86°
2026-05-03 22:40 25.80239 -80.25336 1058 ft 197 kts 100°
2026-05-03 22:40 25.79836 -80.23859 1514 ft 205 kts 123°
2026-05-03 22:40 25.79110 -80.22494 2228 ft 206 kts 123°
2026-05-03 22:41 25.78395 -80.21108 2852 ft 209 kts 123°
2026-05-03 22:41 25.77680 -80.19722 3343 ft 209 kts 123°
2026-05-03 22:41 25.77186 -80.18770 3403 ft 220 kts 122°
2026-05-03 22:41 25.76416 -80.17257 3545 ft 232 kts 121°
2026-05-03 22:42 25.75612 -80.15633 3675 ft 247 kts 121°
2026-05-03 22:42 25.74771 -80.13931 3954 ft 256 kts 121°
2026-05-03 22:42 25.74090 -80.12050 4062 ft 273 kts 95°
2026-05-03 22:42 25.74373 -80.09980 4382 ft 277 kts 60°
2026-05-03 22:43 25.75519 -80.08276 4745 ft 279 kts 46°
2026-05-03 22:43 25.76821 -80.06652 5162 ft 283 kts 46°
2026-05-03 22:43 25.78143 -80.05011 5579 ft 288 kts 45°
2026-05-03 22:43 25.79484 -80.03343 6074 ft 290 kts 46°
2026-05-03 22:44 25.80825 -80.01667 6579 ft 292 kts 46°
2026-05-03 22:44 25.82141 -80.00016 6992 ft 295 kts 46°
2026-05-03 22:44 25.83509 -79.98295 7403 ft 300 kts 46°
2026-05-03 22:44 25.84893 -79.96547 7847 ft 302 kts 46°
2026-05-03 22:45 25.86285 -79.94784 8288 ft 305 kts 47°
2026-05-03 22:45 25.87690 -79.93001 8724 ft 309 kts 47°
2026-05-03 22:45 25.89110 -79.91197 9153 ft 312 kts 47°
2026-05-03 22:45 25.90544 -79.89372 9619 ft 315 kts 47°
2026-05-03 22:46 25.91991 -79.87530 10036 ft 318 kts 48°
2026-05-03 22:46 25.93470 -79.85648 10256 ft 331 kts 48°
2026-05-03 22:46 25.95019 -79.83676 10358 ft 347 kts 48°
2026-05-03 22:46 25.96637 -79.81614 10507 ft 363 kts 48°
2026-05-03 22:47 25.98334 -79.79450 10618 ft 380 kts 48°
2026-05-03 22:47 26.00108 -79.77186 10775 ft 395 kts 48°
2026-05-03 22:47 26.01937 -79.74851 11098 ft 406 kts 48°
2026-05-03 22:47 26.03804 -79.72464 11544 ft 412 kts 48°
2026-05-03 22:48 26.05693 -79.70048 12084 ft 415 kts 48°
2026-05-03 22:48 26.07595 -79.67617 12667 ft 418 kts 48°
2026-05-03 22:48 26.09512 -79.65164 13218 ft 422 kts 48°
2026-05-03 22:48 26.11423 -79.62662 13737 ft 426 kts 51°
2026-05-03 22:49 26.13195 -79.59999 14228 ft 431 kts 54°
2026-05-03 22:49 26.14901 -79.57237 14713 ft 435 kts 55°
2026-05-03 22:49 26.16605 -79.54440 15229 ft 439 kts 55°
2026-05-03 22:49 26.18338 -79.51628 15748 ft 443 kts 54°
2026-05-03 22:50 26.20105 -79.48802 16039 ft 446 kts 54°
2026-05-03 22:50 26.21891 -79.45973 16006 ft 447 kts 54°
2026-05-03 22:50 26.23678 -79.43156 16013 ft 446 kts 54°
2026-05-03 22:50 26.25470 -79.40331 16011 ft 446 kts 54°
2026-05-03 22:51 26.27258 -79.37506 16013 ft 446 kts 54°
2026-05-03 22:51 26.29144 -79.34796 15999 ft 442 kts 44°
2026-05-03 22:51 26.31555 -79.32745 16010 ft 435 kts 28°
2026-05-03 22:51 26.34186 -79.30971 16246 ft 446 kts 28°
2026-05-03 22:52 26.36846 -79.29161 16810 ft 449 kts 29°
2026-05-03 22:52 26.39502 -79.27325 17412 ft 451 kts 29°
2026-05-03 22:52 26.42171 -79.25456 17922 ft 455 kts 29°
2026-05-03 22:52 26.44860 -79.23555 18391 ft 460 kts 30°
2026-05-03 22:53 26.47533 -79.21654 18818 ft 464 kts 30°
2026-05-03 22:53 26.50255 -79.19711 19274 ft 467 kts 30°
2026-05-03 22:53 26.53003 -79.17746 19724 ft 470 kts 30°
2026-05-03 22:53 26.55769 -79.15767 20201 ft 474 kts 29°
2026-05-03 22:54 26.58554 -79.13773 20655 ft 477 kts 29°
2026-05-03 22:54 26.61356 -79.11768 21095 ft 481 kts 29°
2026-05-03 22:54 26.64185 -79.09742 21537 ft 484 kts 29°
2026-05-03 22:54 26.67027 -79.07706 21963 ft 488 kts 29°
2026-05-03 22:55 26.69899 -79.05647 22388 ft 491 kts 29°
2026-05-03 22:55 26.72781 -79.03580 22790 ft 494 kts 29°
2026-05-03 22:55 26.75681 -79.01500 23200 ft 497 kts 29°
2026-05-03 22:55 26.78604 -78.99400 23578 ft 501 kts 29°
2026-05-03 22:56 26.81544 -78.97288 23891 ft 504 kts 29°
2026-05-03 22:56 26.84499 -78.95163 24198 ft 506 kts 28°
2026-05-03 22:56 26.87468 -78.93027 24507 ft 509 kts 29°
2026-05-03 22:56 26.90459 -78.90873 24802 ft 511 kts 28°
2026-05-03 22:57 26.93452 -78.88717 25099 ft 514 kts 28°
2026-05-03 22:57 26.96466 -78.86544 25390 ft 516 kts 28°
2026-05-03 22:57 26.99494 -78.84360 25662 ft 519 kts 28°
2026-05-03 22:57 27.02534 -78.82165 25947 ft 521 kts 28°
2026-05-03 22:58 27.05586 -78.79960 26223 ft 523 kts 28°
2026-05-03 22:58 27.08653 -78.77744 26486 ft 525 kts 28°
2026-05-03 22:58 27.11729 -78.75519 26765 ft 527 kts 28°
2026-05-03 22:58 27.14814 -78.73286 27032 ft 529 kts 28°
2026-05-03 22:59 27.17908 -78.71044 27279 ft 531 kts 28°
2026-05-03 22:59 27.21018 -78.68790 27524 ft 533 kts 28°
2026-05-03 22:59 27.24142 -78.66524 27775 ft 535 kts 28°
2026-05-03 22:59 27.27230 -78.64283 28000 ft 537 kts 28°
2026-05-03 23:00 27.30410 -78.61967 28229 ft 539 kts 28°
2026-05-03 23:00 27.33501 -78.59687 28482 ft 540 kts 28°
2026-05-03 23:00 27.36634 -78.57356 28742 ft 541 kts 28°
2026-05-03 23:00 27.39776 -78.55010 28960 ft 542 kts 28°
2026-05-03 23:01 27.42920 -78.52661 29158 ft 544 kts 28°
2026-05-03 23:01 27.46122 -78.50268 29326 ft 545 kts 28°
2026-05-03 23:01 27.49241 -78.47940 29505 ft 546 kts 28°
2026-05-03 23:01 27.52411 -78.45573 29694 ft 547 kts 28°
2026-05-03 23:02 27.55589 -78.43201 29889 ft 548 kts 28°
2026-05-03 23:02 27.58763 -78.40830 30115 ft 547 kts 28°
2026-05-03 23:02 27.61932 -78.38461 30350 ft 546 kts 28°
2026-05-03 23:02 27.65097 -78.36093 30593 ft 544 kts 28°
2026-05-03 23:03 27.68245 -78.33736 30816 ft 543 kts 28°
2026-05-03 23:03 27.71388 -78.31382 30968 ft 543 kts 28°
2026-05-03 23:03 27.74546 -78.29017 31019 ft 544 kts 28°
2026-05-03 23:04 27.80837 -78.24296 31046 ft 541 kts 28°
2026-05-03 23:04 27.87091 -78.19596 31052 ft 540 kts 28°
2026-05-03 23:05 27.93358 -78.14884 31060 ft 541 kts 28°
2026-05-03 23:05 27.99627 -78.10161 31068 ft 541 kts 28°
2026-05-03 23:06 28.05886 -78.05437 31068 ft 540 kts 28°
2026-05-03 23:06 28.12134 -78.00715 31064 ft 540 kts 28°
2026-05-03 23:07 28.18370 -77.95996 31061 ft 539 kts 28°
2026-05-03 23:07 28.24599 -77.91276 31071 ft 538 kts 28°
2026-05-03 23:08 28.30817 -77.86558 31074 ft 538 kts 28°
2026-05-03 23:08 28.37033 -77.81835 31070 ft 537 kts 28°
2026-05-03 23:09 28.43248 -77.77105 31073 ft 537 kts 28°
2026-05-03 23:09 28.49453 -77.72376 31070 ft 537 kts 28°
2026-05-03 23:10 28.55666 -77.67635 31074 ft 537 kts 28°
2026-05-03 23:10 28.61869 -77.62893 31076 ft 538 kts 28°
2026-05-03 23:11 28.68039 -77.58171 31081 ft 538 kts 29°
2026-05-03 23:11 28.74248 -77.53411 31079 ft 538 kts 29°
2026-05-03 23:12 28.80462 -77.48641 31084 ft 538 kts 29°
2026-05-03 23:12 28.86675 -77.43865 31085 ft 539 kts 29°
2026-05-03 23:13 28.92890 -77.39079 31094 ft 539 kts 29°
2026-05-03 23:13 28.99116 -77.34279 31093 ft 540 kts 29°
2026-05-03 23:14 29.05340 -77.29473 31091 ft 540 kts 29°
2026-05-03 23:14 29.11567 -77.24657 31090 ft 541 kts 29°
2026-05-03 23:15 29.17793 -77.19835 31092 ft 541 kts 29°
2026-05-03 23:15 29.24030 -77.14997 31098 ft 541 kts 29°
2026-05-03 23:16 29.30262 -77.10155 31101 ft 542 kts 30°
2026-05-03 23:16 29.36499 -77.05303 31104 ft 542 kts 30°
2026-05-03 23:17 29.42741 -77.00439 31102 ft 542 kts 30°
2026-05-03 23:17 29.48980 -76.95570 31105 ft 543 kts 30°
2026-05-03 23:18 29.55224 -76.90689 31109 ft 543 kts 30°
2026-05-03 23:18 29.61455 -76.85787 31112 ft 544 kts 32°
2026-05-03 23:19 29.67368 -76.80301 31118 ft 548 kts 37°
2026-05-03 23:19 29.73067 -76.74480 31117 ft 548 kts 38°
2026-05-03 23:20 29.78751 -76.68721 31118 ft 548 kts 37°
2026-05-03 23:20 29.84530 -76.62997 31115 ft 548 kts 37°
2026-05-03 23:21 29.90328 -76.57303 31124 ft 548 kts 36°
2026-05-03 23:21 29.96124 -76.51602 31120 ft 548 kts 37°
2026-05-03 23:22 30.04821 -76.43011 31123 ft 549 kts 37°
2026-05-03 23:22 30.10618 -76.37267 31112 ft 549 kts 37°
2026-05-03 23:23 30.16409 -76.31522 31131 ft 549 kts 37°